GW4807 Weather Reports


time (UTC)temp
F
wind
direction
speed
knots
gust
knots
rain 1hr
in
rain 24hr
in
rain mn
in
humidity
%
barometer
mb
20260510013642 63 124 0.0 0.0 0.00 0.01 0.01 71 1004.3
20260510013138 63 124 0.0 0.0 0.00 0.01 0.01 70 1004.3
20260510012638 64 125 0.0 0.0 0.00 0.01 0.01 70 1004.4
20260510012134 64 126 0.0 0.0 0.00 0.01 0.01 71 1004.2
20260510011634 64 132 0.0 0.0 0.00 0.01 0.01 68 1004.2
20260510011130 65 126 0.0 0.0 0.00 0.01 0.01 68 1004.2
20260510010626 65 126 0.0 0.0 0.00 0.01 0.01 69 1004.2
20260510010124 66 125 0.0 0.0 0.00 0.01 0.01 69 1004.3
20260510005619 66 126 0.0 0.0 0.00 0.01 0.01 69 1004.0
20260510005117 67 130 0.0 0.0 0.00 0.01 0.01 68 1003.9
20260510004615 68 130 0.0 0.0 0.00 0.01 0.01 67 1003.8
20260510004113 68 131 0.0 0.0 0.00 0.01 0.01 68 1003.8
20260510003609 69 138 0.0 0.0 0.00 0.01 0.01 66 1003.8
20260510003105 70 132 0.0 0.0 0.00 0.01 0.01 65 1003.9
20260510002600 71 131 0.0 0.0 0.00 0.01 0.01 62 1003.7
20260510002057 72 135 0.0 0.0 0.00 0.01 0.01 59 1003.5
20260510001555 73 135 0.0 0.0 0.00 0.01 0.01 57 1003.8
20260510001054 75 144 0.9 0.9 0.00 0.01 0.01 52 1003.7
20260510000554 75 139 0.0 0.0 0.00 0.01 0.01 53 1003.7
20260510000051 76 148 0.9 0.9 0.00 0.01 0.01 49 1003.9
20260509235547 78 153 0.9 0.9 0.00 0.01 0.01 47 1003.9
20260509235044 79 142 0.0 0.9 0.00 0.01 0.01 44 1003.6
20260509234540 81 137 0.0 0.0 0.00 0.01 0.01 40 1003.8
20260509234038 82 163 0.9 0.9 0.00 0.01 0.01 38 1003.7
20260509233535 83 153 0.0 0.9 0.00 0.01 0.01 38 1003.9
20260509233033 83 137 0.0 0.0 0.00 0.01 0.01 36 1003.7
20260509232529 84 154 0.0 0.9 0.00 0.01 0.01 34 1003.7
20260509232026 85 144 1.7 1.7 0.00 0.01 0.01 31 1003.5
20260509231522 85 123 0.0 0.0 0.00 0.01 0.01 39 1003.7
20260509231020 86 160 0.9 0.9 0.00 0.01 0.01 34 1003.7
20260509230517 86 137 0.0 0.9 0.00 0.01 0.01 36 1003.6
20260509230014 85 136 0.0 0.0 0.00 0.01 0.01 30 1003.7
20260509225509 86 156 0.9 0.9 0.00 0.01 0.01 32 1003.7
20260509225005 86 145 0.0 0.0 0.00 0.01 0.01 34 1003.5
20260509224500 87 175 1.7 1.7 0.00 0.01 0.01 30 1003.7
20260509223957 86 124 0.0 0.0 0.00 0.01 0.01 29 1003.9
20260509223454 87 166 0.0 0.9 0.00 0.01 0.01 33 1003.8
20260509222952 86 161 0.9 0.9 0.00 0.01 0.01 27 1003.8
20260509222447 86 140 0.0 0.0 0.00 0.01 0.01 36 1003.8
20260509221943 85 133 0.9 1.7 0.00 0.01 0.01 29 1003.6
20260509221440 85 187 2.6 2.6 0.00 0.01 0.01 29 1003.8
20260509220935 84 188 0.9 1.7 0.00 0.01 0.01 29 1003.5
20260509220432 86 146 0.9 0.9 0.00 0.01 0.01 33 1003.7
20260509215928 87 163 0.9 1.7 0.00 0.01 0.01 29 1003.5
20260509215424 85 134 0.9 0.9 0.00 0.01 0.01 33 1003.5
20260509214921 84 152 0.9 1.7 0.00 0.01 0.01 32 1003.5
20260509214418 84 191 4.3 5.2 0.00 0.01 0.01 30 1003.4
20260509213915 84 81 1.7 1.7 0.00 0.01 0.01 35 1003.6
20260509213410 84 177 0.0 0.9 0.00 0.01 0.01 34 1003.5
20260509212909 85 238 2.6 2.6 0.00 0.01 0.01 30 1003.6
20260509212406 84 182 1.7 1.7 0.00 0.01 0.01 32 1003.5
20260509211902 84 295 2.6 2.6 0.00 0.01 0.01 33 1003.5
20260509211358 84 134 0.0 0.0 0.00 0.01 0.01 31 1003.8
20260509210854 84 42 1.7 2.6 0.00 0.01 0.01 36 1003.7
20260509210352 85 183 3.5 5.2 0.00 0.01 0.01 33 1003.7
20260509205852 85 180 2.6 2.6 0.00 0.01 0.01 30 1004.0
20260509205346 86 275 1.7 1.7 0.00 0.01 0.01 28 1004.0
20260509204843 86 146 0.9 0.9 0.00 0.01 0.01 35 1003.9
20260509204339 86 154 0.9 0.9 0.00 0.01 0.01 38 1004.1
20260509203836 84 145 1.7 1.7 0.00 0.01 0.01 34 1004.0
20260509203333 85 225 0.9 1.7 0.00 0.01 0.01 36 1004.1
20260509202829 85 191 0.9 1.7 0.00 0.01 0.01 42 1004.1
20260509202326 85 141 0.9 1.7 0.00 0.01 0.01 32 1004.2
20260509201825 86 97 0.9 0.9 0.00 0.01 0.01 31 1004.3
20260509201322 85 110 0.0 0.0 0.00 0.01 0.01 35 1004.4
20260509200818 86 190 2.6 2.6 0.00 0.01 0.01 34 1004.4
20260509200314 85 120 0.9 0.9 0.00 0.01 0.01 37 1004.5
20260509195810 84 149 0.9 0.9 0.00 0.01 0.01 32 1004.4
20260509195306 83 222 2.6 4.3 0.00 0.01 0.01 33 1004.5
20260509194805 83 222 2.6 2.6 0.00 0.01 0.01 33 1004.2
20260509194301 83 179 1.7 1.7 0.00 0.01 0.01 41 1004.3
20260509193758 84 185 2.6 6.1 0.00 0.01 0.01 40 1004.5
20260509193258 83 205 0.9 2.6 0.00 0.01 0.01 36 1004.3
20260509192754 82 41 0.9 0.9 0.00 0.01 0.01 37 1004.4
20260509192249 83 204 2.6 2.6 0.00 0.01 0.01 33 1004.5
20260509191745 82 161 0.9 1.7 0.00 0.01 0.01 35 1004.5
20260509191242 82 240 2.6 2.6 0.00 0.01 0.01 35 1004.4
20260509190738 82 12 1.7 1.7 0.00 0.01 0.01 37 1004.5
20260509190235 82 11 1.7 2.6 0.00 0.01 0.01 39 1004.4
20260509185732 82 133 0.9 0.9 0.00 0.01 0.01 37 1004.7
20260509185228 82 156 2.6 2.6 0.00 0.01 0.01 38 1004.7
20260509184726 81 187 2.6 5.2 0.00 0.01 0.01 34 1004.3
20260509184223 82 191 2.6 2.6 0.00 0.01 0.01 39 1004.4
20260509183719 81 266 0.9 1.7 0.00 0.01 0.01 41 1004.5
20260509183215 81 257 3.5 4.3 0.00 0.01 0.01 37 1004.6
20260509182711 82 319 3.5 4.3 0.00 0.01 0.01 31 1004.6
20260509182209 82 196 2.6 2.6 0.00 0.01 0.01 36 1004.6
20260509181706 82 116 0.0 0.0 0.00 0.01 0.01 41 1005.0
20260509181203 81 203 0.9 0.9 0.00 0.01 0.01 41 1004.4
20260509180700 81 42 0.9 1.7 0.00 0.01 0.01 43 1004.7
20260509180156 81 156 1.7 1.7 0.00 0.01 0.01 35 1004.7
20260509175652 80 146 0.9 0.9 0.00 0.01 0.01 46 1004.7
20260509175149 80 219 2.6 4.3 0.00 0.01 0.01 42 1004.7
20260509174645 80 119 0.9 0.9 0.00 0.01 0.01 43 1004.6
20260509174145 80 120 0.9 0.9 0.00 0.01 0.01 45 1004.7
20260509173642 80 110 1.7 1.7 0.00 0.01 0.01 45 1004.7
20260509173137 79 312 1.7 2.6 0.00 0.01 0.01 43 1004.7
20260509172634 79 160 1.7 1.7 0.00 0.01 0.01 44 1005.1
20260509172130 78 288 0.9 1.7 0.00 0.01 0.01 41 1005.0
20260509171626 78 163 4.3 7.0 0.00 0.01 0.01 44 1005.1
20260509171123 78 123 0.9 0.9 0.00 0.01 0.01 46 1005.1
20260509170619 77 124 1.7 1.7 0.00 0.01 0.01 47 1005.0
20260509170115 77 302 2.6 2.6 0.00 0.01 0.01 46 1005.0
20260509165614 77 143 0.0 0.0 0.00 0.01 0.01 49 1005.0
20260509165109 77 144 0.9 1.7 0.00 0.01 0.01 52 1005.0
20260509164606 77 130 1.7 1.7 0.00 0.01 0.01 49 1005.0
20260509164101 77 120 0.9 0.9 0.00 0.01 0.01 46 1005.0
20260509163600 76 94 0.9 1.7 0.00 0.01 0.01 47 1004.8
20260509163054 76 71 1.7 2.6 0.00 0.01 0.01 49 1005.0
20260509162551 76 300 1.7 1.7 0.00 0.01 0.01 58 1004.8
20260509162047 75 143 1.7 2.6 0.00 0.01 0.01 52 1004.8
20260509161545 75 193 1.7 1.7 0.00 0.01 0.01 51 1005.0
20260509161044 76 131 0.9 1.7 0.00 0.01 0.01 52 1005.1
20260509160541 76 264 2.6 4.3 0.00 0.01 0.01 48 1005.0
20260509160036 75 152 1.7 1.7 0.00 0.01 0.01 51 1004.7
20260509155532 75 71 0.9 0.9 0.00 0.01 0.01 54 1005.1
20260509155029 74 140 0.9 0.9 0.00 0.01 0.01 55 1005.0
20260509154525 74 144 2.6 2.6 0.00 0.01 0.01 56 1004.7
20260509154023 74 319 1.7 1.7 0.00 0.01 0.01 61 1005.0
20260509153520 73 129 0.9 0.9 0.00 0.01 0.01 61 1005.0
20260509153016 73 153 0.9 0.9 0.00 0.01 0.01 60 1005.0
20260509152512 73 117 0.9 0.9 0.00 0.01 0.01 63 1004.7
20260509152009 73 112 0.9 0.9 0.00 0.01 0.01 66 1005.1
20260509151505 72 129 0.9 0.9 0.00 0.01 0.01 70 1004.8
20260509151004 71 151 1.7 1.7 0.00 0.01 0.01 70 1005.1
20260509150500 70 146 0.9 0.9 0.00 0.01 0.01 74 1005.2
20260509145959 69 100 0.9 0.9 0.00 0.01 0.01 71 1005.1
20260509145454 69 119 0.9 0.9 0.00 0.01 0.01 76 1005.0
20260509144949 69 168 1.7 1.7 0.00 0.01 0.01 77 1005.0
20260509144447 68 128 0.9 0.9 0.00 0.01 0.01 83 1004.7
20260509143944 67 190 1.7 1.7 0.00 0.01 0.01 89 1004.7
20260509143441 64 118 0.0 0.0 0.00 0.01 0.01 93 1004.8
20260509142937 64 41 1.7 1.7 0.00 0.01 0.01 95 1004.8
20260509142434 63 122 0.9 0.9 0.00 0.01 0.01 99 1004.8
20260509141929 63 176 1.7 1.7 0.00 0.01 0.01 99 1005.0
20260509141426 62 156 1.7 2.6 0.00 0.01 0.01 99 1004.8
20260509140923 62 307 2.6 4.3 0.00 0.01 0.01 99 1004.8
20260509140419 62 108 0.9 1.7 0.00 0.01 0.01 99 1004.6
20260509135918 63 104 0.0 0.0 0.00 0.01 0.01 99 1004.8
20260509135415 63 138 0.9 0.9 0.00 0.01 0.01 99 1004.5
20260509134912 64 104 0.0 0.0 0.00 0.01 0.01 99 1004.6
20260509134410 62 103 0.0 0.0 0.00 0.01 0.01 99 1004.7
20260509133906 60 109 0.0 0.9 0.00 0.01 0.01 99 1004.4
20260509133403 59 112 0.0 0.0 0.00 0.01 0.01 99 1004.6
20260509132902 58 85 0.0 0.9 0.00 0.01 0.01 99 1004.4
20260509132359 57 103 0.0 0.0 0.00 0.01 0.01 99 1004.7
20260509131857 57 107 0.0 0.0 0.00 0.01 0.01 99 1004.5
20260509131353 56 96 0.0 0.9 0.00 0.01 0.01 99 1004.5
20260509130850 56 111 0.0 0.0 0.00 0.01 0.01 99 1004.7
20260509130345 55 110 0.0 0.0 0.00 0.01 0.01 99 1004.7
20260509125842 55 116 0.0 0.9 0.00 0.01 0.01 99 1004.5
20260509125338 53 101 0.0 0.0 0.00 0.01 0.01 99 1004.6
20260509124835 53 118 0.0 0.0 0.00 0.01 0.01 99 1004.6
20260509124332 53 126 0.0 0.9 0.00 0.01 0.01 99 1004.6
20260509123830 52 103 0.0 0.0 0.00 0.01 0.01 99 1004.5
20260509123327 51 110 0.0 0.0 0.00 0.01 0.01 99 1004.5
20260509122822 50 107 0.0 0.0 0.00 0.01 0.01 99 1004.4
20260509122320 50 105 0.0 0.0 0.00 0.01 0.01 99 1004.6
20260509121816 48 106 0.0 0.0 0.00 0.01 0.01 99 1004.3
20260509121314 48 109 0.0 0.0 0.00 0.01 0.01 99 1004.5
20260509120812 47 105 0.0 0.0 0.00 0.01 0.01 99 1004.4
20260509120309 46 108 0.0 0.0 0.00 0.01 0.01 99 1004.4
20260509115808 46 110 0.0 0.0 0.00 0.01 0.01 99 1004.1
20260509115306 46 110 0.0 0.0 0.00 0.01 0.01 99 1004.0
20260509114802 45 109 0.0 0.0 0.00 0.01 0.01 99 1004.1
20260509114301 45 108 0.0 0.0 0.00 0.01 0.01 99 1004.1
20260509113759 45 110 0.0 0.0 0.00 0.01 0.01 99 1003.9
20260509113256 45 108 0.0 0.0 0.00 0.01 0.01 99 1003.9
20260509112753 45 110 0.0 0.0 0.00 0.01 0.01 99 1003.7
20260509112250 45 107 0.0 0.0 0.00 0.01 0.01 99 1003.6
20260509111747 45 108 0.0 0.0 0.00 0.01 0.01 99 1003.6
20260509111244 45 118 0.0 0.0 0.00 0.01 0.01 99 1003.6
20260509110741 45 112 0.0 0.0 0.00 0.01 0.01 99 1003.7
20260509110238 45 105 0.0 0.0 0.00 0.01 0.01 99 1003.5
20260509105736 45 106 0.0 0.0 0.00 0.01 0.01 99 1003.6
20260509105233 45 107 0.0 0.0 0.00 0.01 0.01 99 1003.5
20260509104730 45 110 0.0 0.0 0.00 0.01 0.01 99 1003.7
20260509104227 45 109 0.0 0.0 0.00 0.01 0.01 99 1003.5
20260509103725 46 106 0.0 0.0 0.00 0.01 0.01 99 1003.4
20260509103222 46 105 0.0 0.0 0.00 0.01 0.01 99 1003.3
20260509102720 46 107 0.0 0.0 0.00 0.01 0.01 99 1003.6
20260509102217 46 118 0.0 0.0 0.05 0.01 0.01 99 1003.5
20260509101713 46 106 0.0 0.0 0.05 0.01 0.01 99 1003.4
20260509101209 46 107 0.0 0.0 0.00 0.00 0.00 99 1003.4
20260509100707 46 110 0.0 0.0 0.00 0.00 0.00 99 1003.3
20260509100203 46 110 0.0 0.0 0.00 0.00 0.00 99 1003.4
20260509095701 46 109 0.0 0.0 0.00 0.00 0.00 99 1003.6
20260509095158 46 112 0.0 0.0 0.00 0.00 0.00 99 1003.6
20260509094654 47 106 0.0 0.0 0.00 0.00 0.00 99 1003.5
20260509094151 47 106 0.0 0.0 0.00 0.00 0.00 99 1003.6
20260509093650 47 109 0.0 0.0 0.00 0.00 0.00 99 1003.8
20260509093146 47 110 0.0 0.0 0.00 0.00 0.00 99 1003.9
20260509092645 47 108 0.0 0.0 0.00 0.00 0.00 99 1003.7
20260509092143 47 107 0.0 0.0 0.00 0.00 0.00 99 1003.6
20260509091641 48 106 0.0 0.0 0.00 0.00 0.00 99 1003.6
20260509091136 48 106 0.0 0.0 0.00 0.00 0.00 99 1003.8
20260509090634 48 107 0.0 0.0 0.00 0.00 0.00 99 1003.8
20260509090131 48 106 0.0 0.0 0.00 0.00 0.00 99 1003.6
20260509085629 49 106 0.0 0.0 0.00 0.00 0.00 99 1003.8
20260509085124 49 105 0.0 0.0 0.00 0.00 0.00 99 1003.6
20260509084622 49 105 0.0 0.0 0.00 0.00 0.00 99 1003.8
20260509084119 49 105 0.0 0.0 0.00 0.00 0.00 99 1003.7
20260509083616 50 105 0.0 0.0 0.00 0.00 0.00 99 1003.6
20260509083112 50 112 0.0 0.0 0.00 0.00 0.00 99 1003.6
20260509082611 50 126 0.0 0.0 0.00 0.00 0.00 99 1003.5
20260509082107 50 113 0.0 0.0 0.00 0.00 0.00 99 1003.4
20260509081605 50 117 0.0 0.0 0.00 0.00 0.00 99 1003.6
20260509081102 50 112 0.0 0.0 0.00 0.00 0.00 99 1003.3
20260509080600 50 104 0.0 0.0 0.00 0.00 0.00 99 1003.6
20260509080057 51 92 0.9 0.9 0.00 0.00 0.00 99 1003.3
20260509075554 52 115 0.0 0.0 0.00 0.00 0.00 99 1003.4
20260509075052 51 115 0.0 0.0 0.00 0.00 0.00 99 1003.2
20260509074549 51 165 0.9 1.7 0.00 0.00 0.00 99 1003.3
20260509074045 51 128 0.0 0.0 0.00 0.00 0.00 99 1003.3
20260509073542 51 131 0.9 0.9 0.00 0.00 0.00 99 1003.5
20260509073038 51 137 0.9 0.9 0.00 0.00 0.00 99 1003.3
20260509072535 51 108 0.0 0.0 0.00 0.00 0.00 99 1003.3
20260509072032 51 107 0.0 0.0 0.00 0.00 0.00 99 1003.2
20260509071528 52 111 0.0 0.0 0.00 0.00 0.00 99 1003.3
20260509071026 52 103 0.0 0.0 0.00 0.00 0.00 99 1003.2
20260509070523 52 110 0.0 0.0 0.00 0.00 0.00 99 1003.3
20260509070019 53 118 0.0 0.0 0.00 0.00 0.00 99 1003.2
20260509065514 53 132 0.0 0.9 0.00 0.00 0.00 99 1003.4
20260509065011 53 196 2.6 2.6 0.00 0.00 0.00 99 1003.6
20260509064509 52 173 1.7 1.7 0.00 0.00 0.00 99 1003.5
20260509064007 52 128 0.0 0.0 0.00 0.00 0.00 99 1003.5
20260509063502 52 108 0.0 0.0 0.00 0.00 0.00 99 1003.5
20260509062959 52 116 0.0 0.0 0.00 0.00 0.00 99 1003.3
20260509062456 53 112 0.0 0.0 0.00 0.00 0.00 99 1003.5
20260509061954 53 120 0.0 0.0 0.00 0.00 0.00 99 1003.7
20260509061451 53 107 0.0 0.0 0.00 0.00 0.00 99 1003.5
20260509060948 53 107 0.0 0.0 0.00 0.00 0.00 99 1003.6
20260509060446 54 119 0.0 0.0 0.00 0.00 0.00 99 1003.6
20260509055941 54 120 0.0 0.0 0.00 0.00 0.00 99 1003.8
20260509055436 54 120 0.0 0.0 0.00 0.00 0.00 99 1003.7
20260509054933 54 113 0.0 0.0 0.00 0.00 0.00 99 1003.9
20260509054430 54 124 0.0 0.0 0.00 0.00 0.00 99 1003.9
20260509053928 54 115 0.0 0.0 0.00 0.00 0.00 99 1003.8
20260509053426 55 114 0.0 0.0 0.00 0.00 0.00 99 1003.6
20260509052923 55 130 0.0 0.9 0.00 0.00 0.00 99 1003.7
20260509052420 55 124 0.0 0.9 0.00 0.00 0.00 99 1003.9
20260509051918 55 118 0.0 0.0 0.00 0.00 0.00 99 1003.5
20260509051416 55 128 0.0 0.0 0.00 0.00 0.00 99 1003.3
20260509050912 56 134 0.0 0.9 0.00 0.00 0.00 99 1003.3
20260509050409 56 137 0.0 0.9 0.00 0.00 0.00 99 1003.3
20260509045906 56 121 0.0 0.0 0.00 0.05 0.05 99 1003.1
20260509045403 56 101 0.9 0.9 0.00 0.05 0.05 99 1003.4
20260509044900 56 153 0.9 1.7 0.00 0.05 0.05 99 1002.9
20260509044358 57 120 0.0 0.0 0.00 0.05 0.05 99 1003.2
20260509043854 57 138 0.9 0.9 0.00 0.05 0.05 99 1003.5
20260509043350 57 136 0.9 0.9 0.00 0.05 0.05 99 1003.3
20260509042846 58 156 0.0 0.9 0.00 0.05 0.05 99 1003.3
20260509042343 58 129 0.0 0.0 0.00 0.05 0.05 99 1003.4
20260509041840 58 123 0.0 0.0 0.00 0.05 0.05 99 1003.4
20260509041336 58 126 0.0 0.0 0.07 0.05 0.05 99 1003.2
20260509040835 59 173 0.9 0.9 0.07 0.05 0.05 99 1003.4
20260509040332 59 151 0.9 0.9 0.00 0.04 0.04 98 1003.4
20260509035829 59 144 0.9 0.9 0.05 0.04 0.04 98 1003.6
20260509035326 59 140 0.0 0.0 0.05 0.04 0.04 97 1003.6
20260509034822 59 143 0.9 0.9 0.00 0.03 0.03 97 1003.6
20260509034320 59 84 0.9 0.9 0.07 0.03 0.03 96 1003.6
20260509033817 60 134 0.9 0.9 0.07 0.03 0.03 96 1003.7
20260509033314 60 104 0.0 0.0 0.05 0.02 0.02 94 1004.6
20260509032811 60 120 0.0 0.9 0.05 0.02 0.02 93 1004.2
20260509032308 61 88 0.9 0.9 0.07 0.01 0.01 92 1004.3
20260509031806 61 105 0.0 0.9 0.07 0.01 0.01 90 1004.4
20260509031303 62 55 0.9 0.9 0.00 0.00 0.00 88 1004.3
20260509030800 63 105 1.7 1.7 0.00 0.00 0.00 85 1003.7
20260509030258 63 145 1.7 1.7 0.00 0.00 0.00 83 1003.5
20260509025754 63 126 1.7 1.7 0.00 0.00 0.00 81 1003.2
20260509025250 63 36 2.6 2.6 0.00 0.00 0.00 80 1003.2
20260509024746 63 115 0.0 0.0 0.00 0.00 0.00 81 1001.9
20260509024242 64 109 0.9 0.9 0.00 0.00 0.00 78 1001.7
20260509023739 64 117 0.0 0.0 0.00 0.00 0.00 76 1001.7
20260509023236 65 121 0.0 0.0 0.00 0.00 0.00 77 1001.7
20260509022732 65 133 0.9 0.9 0.00 0.00 0.00 73 1001.3
20260509022230 64 84 0.9 0.9 0.00 0.00 0.00 73 1001.2
20260509021727 64 112 0.0 0.9 0.00 0.00 0.00 74 1001.2
20260509021224 63 101 0.9 1.7 0.00 0.00 0.00 77 1001.2
20260509020722 63 117 0.0 0.0 0.00 0.00 0.00 79 1001.0
20260509020219 63 127 0.0 0.0 0.00 0.00 0.00 81 1001.1
20260509015717 63 133 0.9 0.9 0.00 0.00 0.00 80 1000.8
20260509015215 63 143 0.9 0.9 0.00 0.00 0.00 78 1000.7
20260509014711 64 118 0.0 0.0 0.00 0.00 0.00 79 1000.7
20260509014209 64 140 0.9 0.9 0.00 0.00 0.00 78 1000.9